[[{"header":{"parameterUnit":"m.s-1","parameterCategory":1,"la1":30.2991,"la2":30.254,"lo1":-89.0895,"lo2":-89.0444,"dy":0.0017,"dx":0.0017,"nx":28,"ny":28,"refTime":"2024-08-02T21:00:00:Z","depth":0,"parameterNumber":2,"parameterNumberName":"U-component_of_WINDS"},"data":[0,0,0,0,0,0,0,0,0,0,0,0,0,0,0,0,0,0,0,0,0,0,0,0,0,0,0,0,0,0,0,0,0,0,0,0,0,0,0,0,0,0,0,0,0,0,0,0,0,0,0,0,0,0,0,0,0,0,2.035,2.035,0,2.0316,2.0315,2.0315,2.0264,2.0263,2.0262,2.0261,2.0225,2.0225,2.0225,0,0,0,0,0,0,0,0,0,0,0,0,0,2.0374,2.0373,2.035,2.035,2.0349,2.0316,2.0315,2.0315,2.0264,2.0263,2.0262,2.0261,2.0226,2.0225,2.0225,0,0,0,0,0,0,0,0,0,0,0,0,0,2.0354,2.0373,2.035,2.032,2.0317,2.0316,2.0315,2.0315,2.0264,2.0263,2.0262,2.026,2.0226,2.0225,2.0225,2.0251,0,0,2.0225,2.0225,0,0,0,0,0,0,0,0,2.0355,2.0353,2.0325,2.0322,2.0319,2.0293,2.031,2.0293,2.0265,2.0284,2.0261,2.026,2.0249,2.0247,2.0243,2.0249,2.0248,2.0225,2.0225,2.0224,2.0224,0,0,0,0,0,0,0,2.0356,2.0354,2.0337,2.0325,2.0321,2.0309,2.0304,2.0307,2.0274,2.0282,2.0279,2.0275,2.0247,2.0243,2.0242,2.0247,2.0225,2.0225,2.0224,2.0224,2.0276,2.0278,0,0,0,0,0,0,2.0362,2.0356,2.0338,2.0336,2.0334,2.0309,2.0304,2.0302,2.0274,2.0269,2.0276,2.0273,2.0244,2.0242,2.0241,2.0271,2.0224,2.0224,2.0224,2.0275,2.0277,2.0278,0,0,0,0,0,0,2.0363,2.0361,2.0339,2.0345,2.0341,2.031,2.0308,2.0302,2.0299,2.027,2.0264,2.0279,2.0243,2.0241,2.025,2.0269,2.0224,2.0224,2.0273,2.0276,2.0278,2.0331,0,0,0,0,0,0,2.0364,2.0362,2.037,2.0345,2.0341,2.0348,2.031,2.0303,2.0299,2.0294,2.027,2.0265,2.0242,2.025,2.0249,2.0268,2.0224,2.0271,2.0274,2.0277,2.0328,2.0335,2.0342,0,0,0,0,0,2.0365,2.0386,2.0371,2.0369,2.0351,2.0349,2.0347,2.032,2.03,2.031,2.0292,2.0266,2.0267,2.0251,2.025,2.0269,2.027,2.0273,2.0277,2.0325,2.0334,2.0341,0,0,0,0,0,0,2.0413,2.0382,2.0365,2.0379,2.0367,2.0341,2.0351,2.033,2.0323,2.0319,2.0286,2.0281,2.0295,2.0282,2.0266,2.0294,2.0265,2.0268,2.0302,2.031,2.0317,2.032,2.0224,0,0,0,0,0,2.0426,2.0427,2.0399,2.0414,2.041,2.0382,2.038,2.036,2.0347,2.0342,2.0324,2.0312,2.031,2.0309,2.0305,2.0326,2.0321,2.0338,2.0345,2.0351,2.0355,2.0367,2.0375,2.0289,2.0289,2.0289,0,0,2.0451,2.0434,2.0437,2.0424,2.0412,2.0415,2.0378,2.0381,2.0384,2.0342,2.035,2.0337,2.0322,2.0337,2.0343,2.0328,2.0378,2.0355,2.036,2.036,2.0372,2.038,2.0387,2.0292,2.0291,2.0291,0,0,2.0499,2.0486,2.0498,2.0488,2.0472,2.0454,2.0458,2.0435,2.0425,2.0433,2.0403,2.0405,2.0401,2.0392,2.0388,2.0436,2.0413,2.0436,2.0472,2.0485,2.0492,2.0498,2.0517,2.0525,2.0439,2.044,2.044,0,2.0532,2.0535,2.0507,2.0514,2.051,2.0474,2.0487,2.0479,2.0462,2.0461,2.0444,2.0441,2.0428,2.0442,2.0455,2.0451,2.0455,2.0438,2.0493,2.0499,2.0504,2.0522,2.0529,2.0442,2.0442,2.0442,2.0442,0,2.0578,2.0581,2.0593,2.058,2.0577,2.0587,2.0561,2.0562,2.0544,2.0528,2.0538,2.0522,2.0515,2.0517,2.0498,2.053,2.0521,2.0499,2.0469,2.0516,2.0532,2.0539,2.0447,2.0446,2.0445,2.0444,0,0,2.0654,2.0628,2.0632,2.0628,2.0609,2.0611,2.062,2.0615,2.0617,2.0608,2.0616,2.0616,2.0596,2.0591,2.0571,2.0582,2.0625,2.0559,2.0558,2.0574,2.0662,2.068,2.0688,2.061,2.0611,2.0612,2.0664,0,2.0699,2.0714,2.069,2.0711,2.0714,2.0682,2.069,2.0681,2.0667,2.0668,2.0653,2.0654,2.0627,2.0624,2.0634,2.0618,2.0643,2.0614,2.0618,2.0619,2.0624,2.0696,2.0714,2.0764,2.067,2.0671,2.0672,0,2.0753,2.0749,2.0771,2.0754,2.0754,2.0762,2.0758,2.0759,2.0748,2.0738,2.0734,2.0711,2.072,2.0691,2.0705,2.0686,2.0687,2.068,2.0681,2.0681,2.0649,2.07,2.0779,2.0787,2.0681,2.0681,2.068,0,2.081,2.0808,2.0822,2.0818,2.0799,2.0806,2.0798,2.0785,2.0785,2.0781,2.0781,2.0777,2.0776,2.0774,2.0752,2.0733,2.077,2.0738,2.0762,2.0763,2.0772,2.0772,2.0853,2.077,2.077,2.077,2.077,0,2.0863,2.0878,2.0847,2.0856,2.0872,2.0846,2.0863,2.0851,2.0842,2.0848,2.0819,2.0826,2.0796,2.08,2.0783,2.0798,2.0797,2.079,2.0786,2.0793,2.0795,2.0794,2.079,2.0772,2.0771,2.0771,2.0771,0,2.0928,2.0908,2.0921,2.0902,2.0898,2.0911,2.0896,2.0903,2.0889,2.0898,2.0898,2.0875,2.0879,2.0857,2.0856,2.0844,2.0869,2.0857,2.0873,2.087,2.0896,2.0895,2.0981,2.0992,2.0901,2.0902,2.0903,0,2.0964,2.0975,2.0959,2.0962,2.0956,2.096,2.096,2.0935,2.0937,2.0927,2.0937,2.0938,2.0938,2.0945,2.0929,2.0929,2.0919,2.0949,2.0918,2.0927,2.0921,2.0922,2.0924,2.0956,2.0957,2.0958,2.0958,0,2.1031,2.1022,2.1023,2.1022,2.1024,2.1021,2.1017,2.1021,2.0994,2.0997,2.1001,2.1002,2.1002,2.1005,2.1002,2.0994,2.0973,2.0968,2.0974,2.0983,2.0992,2.099,2.0892,2.0966,2.0966,2.0965,2.0965,2.0964,2.1084,2.1093,2.1084,2.1088,2.1083,2.108,2.1088,2.1075,2.1078,2.1077,2.1062,2.107,2.1061,2.1056,2.1051,2.1057,2.1042,2.1051,2.1053,2.1056,2.1061,2.0991,2.1056,2.1056,2.1056,2.1055,2.1055,0,2.1151,2.1144,2.1148,2.1144,2.1148,2.1128,2.1123,2.1127,2.1135,2.1129,2.113,2.1137,2.114,2.1125,2.1126,2.1134,2.1125,2.1136,2.1135,2.1134,2.1073,2.1069,2.1144,2.1144,2.1144,2.1144,2.1144,2.1144,2.1186,2.1202,2.1192,2.1206,2.1199,2.1207,2.1207,2.1205,2.1201,2.121,2.1212,2.1203,2.1194,2.1196,2.1198,2.1194,2.1196,2.1211,2.1204,2.1147,2.1138,2.113,2.1126,2.1212,2.1212,2.1265,2.1265,2.1266]},{"header":{"parameterUnit":"m.s-1","parameterCategory":1,"la1":30.2991,"la2":30.254,"lo1":-89.0895,"lo2":-89.0444,"dy":0.0017,"dx":0.0017,"nx":28,"ny":28,"refTime":"2024-08-02T21:00:00:Z","depth":0,"parameterNumber":3,"parameterNumberName":"V-component_of_WINDS"},"data":[0,0,0,0,0,0,0,0,0,0,0,0,0,0,0,0,0,0,0,0,0,0,0,0,0,0,0,0,0,0,0,0,0,0,0,0,0,0,0,0,0,0,0,0,0,0,0,0,0,0,0,0,0,0,0,0,0,0,0.5026,0.5028,0,0.5195,0.5197,0.5198,0.5266,0.5265,0.5265,0.5265,0.5438,0.5443,0.5448,0,0,0,0,0,0,0,0,0,0,0,0,0,0.4762,0.4766,0.5026,0.5028,0.503,0.5194,0.5197,0.5199,0.5266,0.5265,0.5265,0.5264,0.5436,0.5442,0.5448,0,0,0,0,0,0,0,0,0,0,0,0,0,0.4898,0.4768,0.5025,0.5083,0.509,0.5194,0.5197,0.52,0.5266,0.5265,0.5265,0.5264,0.5434,0.5442,0.5449,0.5508,0,0,0.5472,0.5475,0,0,0,0,0,0,0,0,0.489,0.4908,0.5073,0.5079,0.5087,0.5209,0.5167,0.5303,0.5266,0.5199,0.5265,0.5264,0.5362,0.5376,0.5409,0.5516,0.5524,0.5473,0.5477,0.5481,0.5483,0,0,0,0,0,0,0,0.4881,0.4901,0.5093,0.5075,0.5084,0.5101,0.5119,0.5193,0.5282,0.5205,0.521,0.5229,0.5366,0.5401,0.5413,0.5526,0.5473,0.5479,0.5484,0.5487,0.5689,0.569,0,0,0,0,0,0,0.4862,0.4892,0.5087,0.5098,0.4985,0.5106,0.5127,0.517,0.5282,0.5298,0.523,0.5232,0.5389,0.5404,0.542,0.5495,0.5481,0.5488,0.5492,0.5688,0.5689,0.569,0,0,0,0,0,0,0.4856,0.4878,0.5081,0.4997,0.5024,0.5111,0.5159,0.5174,0.5209,0.53,0.5316,0.5249,0.5389,0.5409,0.5485,0.5502,0.5491,0.5498,0.5687,0.5689,0.569,0.5647,0,0,0,0,0,0,0.4848,0.4876,0.4899,0.4997,0.5028,0.5143,0.5161,0.5178,0.5222,0.5226,0.5323,0.5338,0.539,0.5474,0.5493,0.5512,0.5504,0.5686,0.5688,0.569,0.5647,0.5647,0.5646,0,0,0,0,0,0.4838,0.4881,0.49,0.4923,0.5059,0.5144,0.5162,0.522,0.5223,0.5247,0.5305,0.5335,0.5497,0.5481,0.5503,0.5525,0.5685,0.5687,0.5689,0.5648,0.5647,0.5646,0,0,0,0,0,0,0.4784,0.4895,0.4917,0.4993,0.5058,0.5155,0.5188,0.5218,0.5284,0.5286,0.5356,0.5377,0.5447,0.5494,0.5474,0.5587,0.5594,0.56,0.5554,0.5554,0.5554,0.5541,0.551,0,0,0,0,0,0.4781,0.484,0.4934,0.4992,0.5023,0.5099,0.5139,0.5178,0.5249,0.5277,0.5341,0.5409,0.5475,0.5517,0.5583,0.5654,0.5676,0.568,0.568,0.5679,0.5683,0.5723,0.5726,0.5697,0.5697,0.5697,0,0,0.4775,0.4843,0.4876,0.4982,0.5038,0.5098,0.5123,0.5186,0.5231,0.5287,0.5363,0.5412,0.5492,0.5565,0.5601,0.5606,0.5696,0.5681,0.568,0.5685,0.5726,0.5728,0.5731,0.5698,0.5698,0.5698,0,0,0.4794,0.4852,0.4906,0.4961,0.5044,0.5094,0.5107,0.5199,0.5234,0.5311,0.5353,0.5408,0.5521,0.5576,0.5619,0.5657,0.5687,0.5677,0.5674,0.5712,0.5714,0.5717,0.573,0.5734,0.5681,0.5681,0.5681,0,0.4777,0.4869,0.493,0.499,0.5035,0.5088,0.5143,0.5193,0.5294,0.5323,0.5328,0.547,0.5528,0.5614,0.5623,0.5656,0.5673,0.5666,0.5709,0.5712,0.5715,0.5729,0.5734,0.568,0.568,0.568,0.568,0,0.4843,0.4906,0.4939,0.5034,0.5083,0.514,0.5209,0.5252,0.5286,0.5335,0.5412,0.5483,0.5564,0.5587,0.5622,0.5679,0.5679,0.5696,0.5703,0.5715,0.5729,0.5735,0.5677,0.5678,0.5678,0.5679,0,0,0.4834,0.4961,0.4972,0.5015,0.511,0.516,0.5219,0.5298,0.5332,0.54,0.5451,0.5544,0.5559,0.5608,0.5649,0.5682,0.5707,0.5695,0.5698,0.5694,0.5773,0.576,0.5765,0.5727,0.5729,0.573,0.5766,0,0.4866,0.4974,0.503,0.5114,0.5172,0.5223,0.5274,0.5338,0.5385,0.5442,0.5495,0.5559,0.5575,0.5604,0.564,0.5697,0.5724,0.5695,0.5775,0.5777,0.5753,0.5772,0.5759,0.579,0.5772,0.5773,0.5774,0,0.4918,0.4984,0.5073,0.5161,0.5187,0.5233,0.5308,0.5362,0.5435,0.5467,0.552,0.556,0.5624,0.5626,0.5715,0.5694,0.573,0.5763,0.5765,0.5775,0.5776,0.5782,0.5802,0.5806,0.5783,0.5782,0.5781,0,0.4901,0.5013,0.508,0.5116,0.522,0.525,0.5295,0.5367,0.541,0.5477,0.5505,0.5578,0.5618,0.5673,0.5731,0.5728,0.5813,0.5821,0.5842,0.584,0.5858,0.5856,0.5883,0.5881,0.5881,0.5881,0.5881,0,0.4931,0.4984,0.5074,0.5116,0.5176,0.524,0.5297,0.5346,0.541,0.5461,0.5509,0.5557,0.5631,0.5688,0.5734,0.58,0.5817,0.5845,0.5857,0.5841,0.5837,0.5865,0.5865,0.5882,0.5882,0.5882,0.5881,0,0.4923,0.4986,0.5063,0.5154,0.5179,0.5219,0.5297,0.5339,0.5389,0.5453,0.5472,0.555,0.5619,0.5683,0.5775,0.5806,0.5872,0.5887,0.5847,0.5853,0.587,0.5868,0.5917,0.5926,0.5917,0.5917,0.5917,0,0.4938,0.498,0.5075,0.5113,0.5157,0.5217,0.5261,0.5325,0.5369,0.5454,0.5486,0.5558,0.562,0.5727,0.5792,0.5862,0.5879,0.5891,0.589,0.5872,0.5879,0.5876,0.588,0.589,0.589,0.589,0.589,0,0.4957,0.4986,0.5047,0.512,0.5171,0.5231,0.5292,0.532,0.5396,0.5442,0.5513,0.5561,0.5654,0.5725,0.5802,0.5849,0.5882,0.589,0.5898,0.5882,0.5857,0.5871,0.5844,0.5888,0.5888,0.5889,0.5889,0.5889,0.4961,0.5,0.5073,0.514,0.5192,0.5248,0.5292,0.5347,0.5407,0.5488,0.5522,0.5593,0.5664,0.5772,0.5817,0.5874,0.5881,0.5893,0.5897,0.5898,0.5895,0.5848,0.5888,0.5888,0.5889,0.5889,0.5889,0,0.4982,0.5032,0.5092,0.5176,0.5229,0.5255,0.5324,0.5366,0.5428,0.5492,0.5551,0.5631,0.57,0.577,0.5842,0.5874,0.5891,0.5891,0.589,0.59,0.5885,0.587,0.5876,0.5876,0.5876,0.5876,0.5876,0.5876,0.5,0.5067,0.5104,0.5197,0.5246,0.5317,0.5354,0.5405,0.5456,0.5544,0.5602,0.5646,0.5712,0.579,0.5854,0.5872,0.5897,0.5892,0.5915,0.59,0.5901,0.5901,0.5888,0.5897,0.5897,0.5925,0.5925,0.5926]}]]